This is the latest recevied weather packets stored in our database for station/object PA3CPS. If no packets are shown the sender has not sent any weather packets the latest 10 day(s).
| Time | Temp. | Humidity | Pressure | Rain* | Wind** | Luminosity | Snow |
|---|---|---|---|---|---|---|---|
| 1778054314 | 10.56° C | 78% | 1007.6 hPa | 0 mm | - | 97 W/m² | - |
| 1778054012 | 10.56° C | 79% | 1007.6 hPa | 0 mm | - | 95 W/m² | - |
| 1778053712 | 10.56° C | 79% | 1007.6 hPa | 0 mm | - | 97 W/m² | - |
| 1778053411 | 10.56° C | 77% | 1007.5 hPa | 0 mm | - | 100 W/m² | - |
| 1778053112 | 10.56° C | 75% | 1007.5 hPa | 0 mm | - | 97 W/m² | - |
| 1778052811 | 10° C | 74% | 1007.5 hPa | 0 mm | - | 97 W/m² | - |
| 1778052511 | 10° C | 73% | 1007.5 hPa | 0 mm | - | 93 W/m² | - |
| 1778052211 | 10° C | 74% | 1007.5 hPa | 0 mm | - | 98 W/m² | - |
| 1778051912 | 10° C | 75% | 1007.4 hPa | 0 mm | - | 114 W/m² | - |
| 1778051612 | 10° C | 76% | 1007.4 hPa | 0 mm | - | 125 W/m² | - |
| 1778051310 | 10° C | 80% | 1007.5 hPa | 0 mm | - | 118 W/m² | - |
| 1778051009 | 10° C | 82% | 1007.5 hPa | 0 mm | - | 111 W/m² | - |
| 1778050708 | 10° C | 83% | 1007.3 hPa | 0 mm | - | 107 W/m² | - |
| 1778050407 | 10° C | 85% | 1007.4 hPa | 0 mm | - | 105 W/m² | - |
| 1778050107 | 10° C | 86% | 1007.2 hPa | 0 mm | - | 97 W/m² | - |
| 1778049800 | 10° C | 86% | 1007.4 hPa | 0 mm | - | 81 W/m² | - |
| 1778049500 | 9.44° C | 87% | 1007.3 hPa | 0 mm | - | 69 W/m² | - |
| 1778049199 | 9.44° C | 87% | 1007.3 hPa | 0 mm | - | 63 W/m² | - |
| 1778048897 | 9.44° C | 87% | 1007.3 hPa | 0 mm | - | 62 W/m² | - |
| 1778048596 | 9.44° C | 87% | 1007.2 hPa | 0 mm | - | 58 W/m² | - |
| 1778048296 | 9.44° C | 87% | 1007.1 hPa | 0 mm | - | 51 W/m² | - |
| 1778047986 | 9.44° C | 88% | 1007.2 hPa | 0 mm | - | 44 W/m² | - |
| 1778047683 | 9.44° C | 88% | 1007 hPa | 0 mm | - | 42 W/m² | - |
| 1778047385 | 9.44° C | 88% | 1007.1 hPa | 0 mm | - | 39 W/m² | - |
| 1778047084 | 9.44° C | 88% | 1007 hPa | 0 mm | - | 35 W/m² | - |
* Rain latest hour (hover to see other rain measurements)
** Current wind speed in m/s (hover to see current wind gust speed)